Regional Weather Roundup
Issued by NWS

Home | Current Version | Previous Version | Text Only | Print | Product List | Glossary Off
Versions: 1 2 3 4 5 6 7 8 9 10 11 12 13 14 15 16 17 18 19 20 21 22 23 24 25 26 27 28 29 30 31 32 33 34 35 36 37 38 39 40 41 42 43 44 45 46 47 48 49 50

000
ASUS43 KIND 260209
RWRIN

WEATHER ROUNDUP FOR INDIANA
NATIONAL WEATHER SERVICE INDIANAPOLIS IN
1000 PM EDT MON JUL 25 2016

NOTE: "FAIR" INDICATES FEW OR NO CLOUDS BELOW 12,000 FEET WITH NO
SIGNIFICANT WEATHER AND/OR OBSTRUCTIONS TO VISIBILITY.

* - STATION DOES NOT REPORT WEATHER SUCH AS PRECIPITATION OR FOG.

+ - STATION NOT QUALITY CONTROLLED BY THE NATIONAL WEATHER SERVICE.
    USE DATA WITH CAUTION...ESPECIALLY DEWPOINT AND RELATIVE
    HUMIDITY OBSERVATIONS.

INZ001>003-010>013-019-020-260300-
NORTHWEST INDIANA

CITY           SKY/WX    TMP DP  RH WIND       PRES   REMARKS
GARY /AIRPORT/ MOCLDY    73  70  88 SE5       30.01R
KNOX *+        PTCLDY    70  68  94 CALM      30.01R
LA PORTE +     CLOUDY    73  71  93 CALM      30.02R
MICHIGAN CITY+ CLOUDY    70  64  83 CALM      30.02R
MONTICELLO +   CLOUDY    73  63  70 CALM      30.00R
RENSSELAER +   CLOUDY    72  72 100 CALM      30.02R
VALPARAISO     PTCLDY    74  66  76 CALM      30.02R

$$

LMZ046-743>745-260300-
SOUTHERN LAKE MICHIGAN

STATION/POSITION TIME  TEMP    WIND        PRES    WAVE
                       AIR SEA DIR/SP/G            HT
                 (UTC) (F)     (DEG/KT/KT) (MB)    (FT)
BURNS HARBOR     0100   78      60/  4/  5 1015.9S
MICHIGAN CITY    0100   77      30/  5/  5   N/A
5NW MICH CITY    0200   76 75   60/  4/  6   N/A     1

$$

INZ004-005-014>016-021>024-260300-
NORTH CENTRAL INDIANA

CITY           SKY/WX    TMP DP  RH WIND       PRES   REMARKS
GOSHEN         MOCLDY    74  63  68 W5        30.02R
LOGANSPORT +   PTCLDY    73  64  73 CALM      30.02R
PERU/GRISSOM   MOCLDY    76  67  72 N2        30.00R
ROCHESTER +    MOCLDY    75  68  78 CALM      30.02R
SOUTH BEND     PTCLDY    71  63  75 N5        30.01S
WARSAW +       PTCLDY    73  63  68 CALM      30.01S

$$

INZ006>009-017-018-025>027-260300-
NORTHEAST INDIANA

CITY           SKY/WX    TMP DP  RH WIND       PRES   REMARKS
ANGOLA *+        N/A     73  68  83 NW5       30.01R
AUBURN +       MOCLDY    73  61  64 NW5       30.01R
FORT WAYNE     MOCLDY    75  65  70 W5        30.01R
HUNTINGTON +   PTCLDY    74  65  72 CALM      30.00S

$$

INZ028-029-035-036-043>045-051>053-260300-
WEST CENTRAL INDIANA

CITY           SKY/WX    TMP DP  RH WIND       PRES   REMARKS
CRAWFORDSVL +  CLOUDY    75  75 100 NE3       30.01R
GREENCASTLE +  CLOUDY    75  75 100 CALM      30.01S
LAFAYETTE      PTCLDY    76  70  82 NE5       30.00R
TERRE HAUTE    CLOUDY    78  74  87 N3        29.99R

$$

INZ030>032-037>040-046>048-054>057-064-065-260300-
CENTRAL INDIANA

CITY           SKY/WX    TMP DP  RH WIND       PRES   REMARKS
COLUMBUS       CLEAR     81  77  89 CALM      29.99R
INDIANAPOLIS   MOCLDY    81  73  76 N7        30.00R
-EAGLE CREEK   CLOUDY    80  71  74 N3        30.00R
KOKOMO *+      MOCLDY    73  64  73 CALM      30.02R
MARION +       PTCLDY    73  68  83 CALM      30.02R
MT COMFORT *+  CLOUDY    77  72  83 CALM      30.01S
SHELBYVILLE    CLOUDY    82  74  76 N5        29.99R
ZIONSVILLE +   CLOUDY    73  71  91 NE3       30.02R

$$

INZ033-034-041-042-049-050-058-059-260300-
EAST CENTRAL INDIANA

CITY           SKY/WX    TMP DP  RH WIND       PRES   REMARKS
MUNCIE         PTCLDY    77  70  79 CALM      30.01R

$$

INZ060-061-067>069-081>083-085>088-260300-
SOUTHWEST INDIANA

CITY           SKY/WX    TMP DP  RH WIND       PRES   REMARKS
EVANSVILLE     CLOUDY    78  75  90 CALM      29.99R
HUNTINGBURG *+ CLOUDY    75  72  88 SE5       29.99R
WASHINGTON +   CLOUDY    78  78 100 MISG      29.98R

$$

INZ062-063-066-070>080-084-089>092-260300-
SOUTH CENTRAL AND SOUTHEAST INDIANA

CITY           SKY/WX    TMP DP  RH WIND       PRES   REMARKS
BLOOMINGTON    CLOUDY    78  74  87 CALM      30.00R
MADISON *+     MOCLDY    75  72  88 CALM      30.02S

$$





USA.gov is the U.S. government's official web portal to all federal, state and local government web resources and services.